Location: Newark
(31.0436°N, 112.2008°E)
Time: 15:15:44
(UTC+00:00)

LightSail 2 - Pass Details

Date: 27 January 2020
Orbit: 701 x 721 km, 24.0° (Epoch: 16 February)

Event Time Altitude Azimuth Distance (km) Brightness Sun altitude
Rises 10:27:13 0° 261° (W) 3,072 10.7 -6.0°
Reaches altitude 10° 10:29:51 10° 251° (WSW) 2,157 9.5 -6.6°
Maximum altitude 10:34:19 31° 190° (S) 1,217 6.7 -7.5°
Drops below altitude 10° 10:38:48 10° 128° (SE) 2,166 7.3 -8.4°
Enters shadow 10:41:15 - 119° (ESE) 3,015 8.0 -8.9°
